| time (UTC) | temp C | wind direction | speed KPH | gust KPH | rain 1hr cm | rain 24hr cm | rain mn cm | humidity % | barometer mb |
| 20260506024557 | 22 | 355 | 3.2 | 12.9 | 0.00 | 0.00 | 0.00 | 30 | 1004.1 |
| 20260506023050 | 22 | 360 | 3.2 | 19.3 | 0.00 | 0.00 | 0.00 | 28 | 1003.9 |
| 20260506021601 | 23 | 355 | 4.8 | 19.3 | 0.00 | 0.00 | 0.00 | 28 | 1003.6 |
| 20260506020048 | 23 | 360 | 4.8 | 20.9 | 0.00 | 0.00 | 0.00 | 27 | 1003.6 |
| 20260506014548 | 24 | 5 | 6.4 | 20.9 | 0.00 | 0.00 | 0.00 | 26 | 1003.5 |
| 20260506013055 | 24 | 344 | 8.0 | 22.5 | 0.00 | 0.00 | 0.00 | 27 | 1003.4 |
| 20260506011601 | 25 | 333 | 9.7 | 20.9 | 0.00 | 0.00 | 0.00 | 25 | 1003.3 |
| 20260506010046 | 25 | 338 | 6.4 | 17.7 | 0.00 | 0.00 | 0.00 | 26 | 1003.2 |
| 20260506004546 | 25 | 355 | 6.4 | 25.7 | 0.00 | 0.00 | 0.00 | 26 | 1003.2 |
| 20260506003045 | 25 | 14 | 11.3 | 24.1 | 0.00 | 0.00 | 0.00 | 25 | 1003.1 |
| 20260506001550 | 25 | 355 | 11.3 | 24.1 | 0.00 | 0.00 | 0.00 | 24 | 1003.3 |
| 20260506000046 | 25 | 355 | 9.7 | 22.5 | 0.00 | 0.00 | 0.00 | 25 | 1003.2 |
| 20260505234544 | 26 | 293 | 11.3 | 22.5 | 0.00 | 0.00 | 0.00 | 24 | 1003.3 |
| 20260505233043 | 26 | 313 | 9.7 | 27.4 | 0.00 | 0.00 | 0.00 | 25 | 1003.4 |
| 20260505231600 | 26 | 323 | 9.7 | 27.4 | 0.00 | 0.00 | 0.00 | 25 | 1003.4 |
| 20260505230042 | 26 | 282 | 6.4 | 29.0 | 0.00 | 0.00 | 0.00 | 26 | 1003.4 |
| 20260505224542 | 26 | 288 | 9.7 | 19.3 | 0.00 | 0.00 | 0.00 | 26 | 1003.6 |
| 20260505223041 | 26 | 303 | 8.0 | 30.6 | 0.00 | 0.00 | 0.00 | 25 | 1003.6 |
| 20260505221539 | 26 | 327 | 6.4 | 24.1 | 0.00 | 0.00 | 0.00 | 26 | 1003.8 |
| 20260505220038 | 25 | 290 | 6.4 | 16.1 | 0.00 | 0.00 | 0.00 | 28 | 1004.0 |
| 20260505214556 | 25 | 303 | 6.4 | 16.1 | 0.00 | 0.00 | 0.00 | 28 | 1004.3 |
| 20260505213028 | 25 | 15 | 4.8 | 19.3 | 0.00 | 0.00 | 0.00 | 32 | 1004.7 |
| 20260505211527 | 25 | 317 | 8.0 | 16.1 | 0.00 | 0.00 | 0.00 | 31 | 1004.7 |
| 20260505210026 | 25 | 300 | 8.0 | 19.3 | 0.00 | 0.00 | 0.00 | 31 | 1004.9 |
| 20260505204524 | 24 | 259 | 4.8 | 17.7 | 0.00 | 0.00 | 0.00 | 31 | 1004.9 |
| 20260505203022 | 24 | 309 | 4.8 | 14.5 | 0.00 | 0.00 | 0.00 | 35 | 1005.2 |
| 20260505201520 | 23 | 348 | 4.8 | 17.7 | 0.00 | 0.00 | 0.00 | 34 | 1005.3 |
| 20260505200018 | 23 | 288 | 3.2 | 9.7 | 0.00 | 0.00 | 0.00 | 33 | 1005.4 |
| 20260505194518 | 23 | 292 | 4.8 | 16.1 | 0.00 | 0.00 | 0.00 | 31 | 1005.6 |
| 20260505193016 | 23 | 212 | 1.6 | 8.0 | 0.00 | 0.00 | 0.00 | 34 | 1005.7 |
| 20260505191518 | 22 | 278 | 3.2 | 12.9 | 0.00 | 0.00 | 0.00 | 33 | 1005.8 |
| 20260505190022 | 22 | 360 | 0.0 | 9.7 | 0.00 | 0.00 | 0.00 | 33 | 1006.0 |
| 20260505184514 | 22 | 292 | 4.8 | 12.9 | 0.00 | 0.00 | 0.00 | 35 | 1006.1 |
| 20260505183011 | 22 | 271 | 3.2 | 16.1 | 0.00 | 0.00 | 0.00 | 36 | 1006.3 |
| 20260505181511 | 22 | 252 | 3.2 | 12.9 | 0.00 | 0.00 | 0.00 | 35 | 1006.4 |
| 20260505180014 | 22 | 146 | 3.2 | 8.0 | 0.00 | 0.00 | 0.00 | 36 | 1006.5 |
| 20260505174509 | 22 | 157 | 0.0 | 9.7 | 0.00 | 0.00 | 0.00 | 32 | 1006.6 |
| 20260505173006 | 21 | 126 | 0.0 | 9.7 | 0.00 | 0.00 | 0.00 | 34 | 1006.6 |
| 20260505171506 | 21 | 146 | 4.8 | 12.9 | 0.00 | 0.00 | 0.00 | 37 | 1006.5 |
| 20260505170001 | 21 | 209 | 3.2 | 9.7 | 0.00 | 0.00 | 0.00 | 36 | 1006.3 |
| 20260505164605 | 20 | 185 | 3.2 | 11.3 | 0.00 | 0.00 | 0.00 | 37 | 1006.3 |
| 20260505163054 | 20 | 142 | 3.2 | 12.9 | 0.00 | 0.00 | 0.00 | 42 | 1006.2 |
| 20260505161555 | 19 | 182 | 6.4 | 20.9 | 0.00 | 0.00 | 0.00 | 39 | 1006.2 |
| 20260505153044 | 18 | 186 | 8.0 | 17.7 | 0.00 | 0.00 | 0.00 | 44 | 1005.6 |
| 20260505151541 | 17 | 181 | 6.4 | 14.5 | 0.00 | 0.00 | 0.00 | 50 | 1005.7 |
| 20260505124532 | 9 | 126 | 0.0 | 3.2 | 0.00 | 0.00 | 0.00 | 75 | 1003.9 |
| 20260505123028 | 10 | 126 | 0.0 | 4.8 | 0.00 | 0.00 | 0.00 | 75 | 1003.7 |
| 20260505121522 | 9 | 126 | 0.0 | 4.8 | 0.00 | 0.00 | 0.00 | 73 | 1003.1 |
| 20260505120029 | 10 | 126 | 0.0 | 3.2 | 0.00 | 0.00 | 0.00 | 73 | 1002.9 |
| 20260505114511 | 10 | 126 | 0.0 | 3.2 | 0.00 | 0.00 | 0.00 | 70 | 1002.7 |
| 20260505113006 | 11 | 126 | 0.0 | 6.4 | 0.00 | 0.00 | 0.00 | 66 | 1002.6 |
| 20260505111509 | 12 | 286 | 0.0 | 3.2 | 0.00 | 0.00 | 0.00 | 63 | 1002.3 |
| 20260505101553 | 13 | 286 | 0.0 | 4.8 | 0.00 | 0.00 | 0.00 | 56 | 1001.6 |
| 20260505100047 | 13 | 286 | 1.6 | 4.8 | 0.00 | 0.00 | 0.00 | 54 | 1001.3 |
| 20260505094543 | 14 | 281 | 1.6 | 8.0 | 0.00 | 0.00 | 0.00 | 52 | 1001.4 |
| 20260505093044 | 14 | 273 | 1.6 | 11.3 | 0.00 | 0.00 | 0.00 | 52 | 1001.2 |
| 20260505091545 | 15 | 291 | 3.2 | 12.9 | 0.00 | 0.00 | 0.00 | 52 | 1000.9 |
| 20260505090039 | 15 | 281 | 6.4 | 11.3 | 0.00 | 0.00 | 0.00 | 51 | 1000.8 |
| 20260505084533 | 16 | 273 | 1.6 | 6.4 | 0.00 | 0.00 | 0.00 | 48 | 1000.8 |
| 20260505083029 | 16 | 292 | 1.6 | 8.0 | 0.00 | 0.00 | 0.00 | 46 | 1000.8 |
| 20260505081527 | 16 | 267 | 1.6 | 9.7 | 0.00 | 0.00 | 0.00 | 45 | 1000.7 |
| 20260505080024 | 16 | 297 | 4.8 | 11.3 | 0.00 | 0.00 | 0.00 | 44 | 1000.5 |
| 20260505074526 | 17 | 299 | 3.2 | 14.5 | 0.00 | 0.00 | 0.00 | 44 | 1000.5 |
| 20260505073023 | 17 | 298 | 4.8 | 17.7 | 0.00 | 0.00 | 0.00 | 44 | 1000.5 |
| 20260505071530 | 17 | 295 | 4.8 | 12.9 | 0.00 | 0.00 | 0.00 | 44 | 1000.4 |
| 20260505070018 | 17 | 305 | 3.2 | 8.0 | 0.00 | 0.00 | 0.00 | 43 | 1000.4 |
| 20260505064517 | 17 | 286 | 3.2 | 11.3 | 0.00 | 0.00 | 0.00 | 43 | 1000.4 |
| 20260505063017 | 17 | 296 | 3.2 | 12.9 | 0.00 | 0.00 | 0.00 | 42 | 1000.3 |
| 20260505061517 | 17 | 300 | 1.6 | 8.0 | 0.00 | 0.00 | 0.00 | 42 | 1000.2 |
| 20260505060112 | 18 | 311 | 3.2 | 8.0 | 0.00 | 0.00 | 0.00 | 41 | 1000.1 |
| 20260505054513 | 18 | 313 | 0.0 | 4.8 | 0.00 | 0.00 | 0.00 | 41 | 1000.0 |
| 20260505053010 | 18 | 313 | 1.6 | 6.4 | 0.00 | 0.00 | 0.00 | 41 | 999.9 |
| 20260505051517 | 18 | 302 | 1.6 | 8.0 | 0.00 | 0.00 | 0.00 | 41 | 999.9 |
| 20260505041509 | 19 | 298 | 1.6 | 9.7 | 0.00 | 0.00 | 0.00 | 42 | 999.7 |
| 20260505040007 | 20 | 288 | 3.2 | 9.7 | 0.00 | 0.00 | 0.00 | 43 | 999.6 |
| 20260505034507 | 21 | 284 | 3.2 | 11.3 | 0.00 | 0.00 | 0.00 | 38 | 999.4 |
| 20260505033006 | 21 | 308 | 1.6 | 9.7 | 0.00 | 0.00 | 0.00 | 36 | 999.2 |
| 20260505031506 | 22 | 318 | 1.6 | 11.3 | 0.00 | 0.00 | 0.00 | 35 | 999.0 |
| 20260505030007 | 23 | 338 | 3.2 | 12.9 | 0.00 | 0.00 | 0.00 | 33 | 998.8 |